Weather History for KPDX - November, 2012

Change the Weather History Date:

Wednesday, November 7, 2012

  Actual Average Record
Temperature  
Mean Temperature 49 °F 49 °F  
Max Temperature 57 °F 55 °F 66 °F (1941)
Min Temperature 40 °F 42 °F 29 °F (1959)
Degree Days  
Heating Degree Days 16 16  
Month to date heating degree days 56 108  
Since 1 July heating degree days 384 526  
Cooling Degree Days 0 0  
Month to date cooling degree days 0 0  
Year to date cooling degree days 436 424  
Moisture  
Dew Point 42 °F    
Average Humidity 74    
Maximum Humidity 100    
Minimum Humidity 47    
Precipitation  
Precipitation T in 0.18 in 1.07 in (2009)
Month to date precipitation 0.74 1.14  
Year to date precipitation 35.39 26.05  
Snow  
Snow 0.00 in - - ()
Month to date snowfall 0.0  
Snow Depth 0.00 in    
Sea Level Pressure  
Sea Level Pressure 30.10 in    
Wind  
Wind Speed 3 mph (WSW)    
Max Wind Speed 10 mph    
Max Gust Speed 17 mph    
Visibility 10 miles    
Events Fog , Rain    
T = Trace of Precipitation, MM = Missing Value Source: NWS Daily Summary

Daily Weather History Graph

Daily Weather History Graph

Search for Another Location

Airport or City:

Trip Planner

Search our weather history database for the weather conditions in past years. The results will help you decide how hot, cold, wet, or windy it might be!

Date:

Astronomy

Nov. 07, 2012 Rise Set
Actual Time 6:59 AM PST 4:48 PM PST
Civil Twilight 6:27 AM PST 5:19 PM PST
Nautical Twilight 5:52 AM PST 5:55 PM PST
Astronomical Twilight 5:17 AM PST 6:29 PM PST
Moon No Moon Rise 1:18 PM PST (11/7)
Length of Visible Light 10h 51m
Length of Day
9h 48m
Last Quarter, 42% of the Moon is Illuminated
Nov 7
Last Quarter
Nov 13
New
Nov 20
First Quarter
Nov 28
Full
Dec 6
Last Quarter

Hourly Weather History & Observations

Time (PST) Temp. Windchill Dew Point Humidity Pressure Visibility Wind Dir Wind Speed Gust Speed Precip Events Conditions
12:53 AM 52.0 °F - 48.0 °F 86% 30.12 in 10.0 mi WNW 6.9 mph - N/A   Partly Cloudy
1:53 AM 48.0 °F - 46.9 °F 96% 30.14 in 10.0 mi NW 4.6 mph - N/A   Scattered Clouds
2:53 AM 48.9 °F - 46.9 °F 93% 30.15 in 10.0 mi WSW 4.6 mph - N/A   Scattered Clouds
3:53 AM 48.0 °F - 46.0 °F 93% 30.16 in 10.0 mi Calm Calm - N/A   Mostly Cloudy
4:53 AM 45.0 °F - 44.1 °F 97% 30.17 in 10.0 mi Calm Calm - N/A Fog Shallow Fog
5:53 AM 45.0 °F 43.5 °F 44.1 °F 97% 30.18 in 10.0 mi SSW 3.5 mph - N/A   Partly Cloudy
6:53 AM 45.0 °F - 43.0 °F 93% 30.18 in 10.0 mi Calm Calm - N/A Fog Shallow Fog
7:53 AM 46.9 °F - 44.1 °F 90% 30.19 in 10.0 mi Calm Calm - N/A   Scattered Clouds
8:53 AM 51.1 °F - 45.0 °F 80% 30.19 in 10.0 mi Calm Calm - N/A   Scattered Clouds
9:53 AM 53.1 °F - 46.0 °F 77% 30.18 in 10.0 mi Variable 3.5 mph - N/A   Scattered Clouds
10:53 AM 53.1 °F - 45.0 °F 74% 30.18 in 10.0 mi Calm Calm - N/A   Mostly Cloudy
11:53 AM 55.9 °F - 39.9 °F 55% 30.16 in 10.0 mi Variable 3.5 mph - N/A   Scattered Clouds
12:53 PM 55.9 °F - 37.0 °F 49% 30.14 in 10.0 mi Calm Calm - N/A   Scattered Clouds
1:53 PM 55.9 °F - 36.0 °F 47% 30.13 in 10.0 mi WNW 5.8 mph - N/A   Scattered Clouds
2:53 PM 53.1 °F - 41.0 °F 64% 30.12 in 10.0 mi NW 8.1 mph - 0.00 in Rain Light Rain
3:53 PM 54.0 °F - 37.9 °F 55% 30.10 in 10.0 mi Calm Calm - 0.00 in   Partly Cloudy
4:53 PM 48.9 °F - 39.9 °F 71% 30.08 in 10.0 mi SE 5.8 mph - N/A   Partly Cloudy
5:53 PM 48.9 °F - 39.9 °F 71% 30.06 in 10.0 mi Calm Calm - N/A   Scattered Clouds
6:53 PM 46.9 °F - 41.0 °F 80% 30.05 in 10.0 mi East 6.9 mph - N/A   Scattered Clouds
7:53 PM 46.0 °F 43.9 °F 43.0 °F 89% 30.03 in 10.0 mi ESE 4.6 mph - N/A   Scattered Clouds
8:53 PM 44.1 °F 42.5 °F 42.1 °F 93% 30.01 in 10.0 mi South 3.5 mph - N/A   Scattered Clouds
9:53 PM 45.0 °F 42.6 °F 42.1 °F 90% 29.99 in 10.0 mi West 4.6 mph - N/A   Scattered Clouds
10:53 PM 42.1 °F - 39.9 °F 92% 29.96 in 8.0 mi Calm Calm - N/A   Scattered Clouds
11:53 PM 41.0 °F - 39.2 °F 93% 29.95 in 9.0 mi Calm Calm - N/A Fog Shallow Fog
11:59 PM 39.2 °F - 39.2 °F 100% 29.95 in 9.0 mi Calm Calm - N/A Fog Shallow Fog